Weather in Vilkaviskis

Lithuania     54°39′00″N   23°01′47″E
temp.,
°C
wind,
m/s
gust,
m/s
humid.,
%
clouds,
%
prec.,
mm/h
press.,
hPa
HPBL,
m
28 july, wed
wed2800:00+19sw3394100 0.8 101144
03:00+17wsw229589 0.8 101141
06:00+16w129546 0.0 101113
09:00+20sw128268 0.0 1012242
12:00+25wsw235977 0.0 1011823
15:00+27wsw464867 0.3 10111814
18:00+27w245598 0.0 1010667
21:00+23sse336816 0.0 100923
29 july, thu
thu2900:00+19wsw269394 1.2 1010135
03:00+19sw3895100 1.3 1009227
06:00+18wsw3797100 0.5 1009251
09:00+20wnw46845 0.5 1009453
12:00+24w46570 0.0 10091373
15:00+27wsw784686 0.0 10082356
18:00+22nw3766100 0.0 1008294
21:00+20wsw347113 0.1 100886
30 july, fri
fri3000:00+17wnw258081 0.1 1009170
03:00+15ssw339221 0.1 100937
06:00+15ssw38895 0.1 1008173
09:00+19wsw6115943 0.1 1008663
12:00+21wsw712498 0.0 10081579
15:00+21wsw61150100 0.0 10061236
18:00+22sw710480 0.0 10051919
21:00+21wsw595238 0.0 1005417
31 july, sat
sat3100:00+14wsw33758 0.0 100640
03:00+14sw410750 0.0 1006173
06:00+13sw3680100 0.0 1006102
09:00+19sw466093 0.0 1006332
12:00+24ssw4649100 0.0 1005957
15:00+21s61070100 0.1 1005573
18:00+21ssw5873100 0.3 1004960
21:00+19ssw2384100 0.9 100330
1 august, sun
sun100:00+15wsw33910 0.1 100533
03:00+13sw411880 0.1 1005196
06:00+13sw413860 0.0 1006312
09:00+18wsw6107037 0.0 1006629
12:00+22wsw6858100 0.0 10071558
15:00+23w4748100 0.1 10071972
18:00+23w355198 0.0 10071753
21:00+19n2266100 0.0 100741